STARLINK-36688

Last updated on Thu Mar 05 2026 00:02:08 GMT+0000 (Coordinated Universal Time)

1 67656U 26022J 26063.06307096 .00221364 00000+0 14425-2 0 9995 2 67656 97.2845 96.7685 0000717 22.4983 337.6314 15.75260220 4664
UTC large
Height (km)
Speed (km/s)
/
Latitude / Longitude
Inclination (degrees)
Orbital Period (minutes)
Azimuth
Elevation
Range (km)
Doppler Factor

Next 0 passes for location: London (51.5072 / 0.1276)

Sorry there are no passes over London.